Location: Glass Lake
(42.6301°N, 73.5309°W)
Time: 09:35:41
(UTC+00:00)

BlueWalker 3 - Pass Details

Date: 14 October 2024
Orbit: 470 x 481 km, 53.2° (Epoch: 11 November)

Event Time Altitude Azimuth Distance (km) Brightness Sun altitude
Exits shadow 10:22:27 - 315° (NW) 2,000 4.5 -8.9°
Reaches altitude 10° 10:23:40 10° 327° (NNW) 1,633 4.2 -8.7°
Maximum altitude 10:26:15 18° 11° (NNE) 1,227 4.0 -8.2°
Drops below altitude 10° 10:28:50 10° 56° (NE) 1,634 5.4 -7.7°
Sets 10:31:31 0° 76° (ENE) 2,512 7.2 -7.2°
